EHI
0 0 0 0 0 0 0 0 0 0 0 0 0 0 0 0 0 0 0 0 0 0 0 0 0 0 0 0 0 0 0 0 0 0 0 0 0 0 0 0 0 0 0
0 0 0 0 0 0 0 0 0 0 0 0 0 0 0 0 0 0 0 0 0 0 0 0 0 0 0 0 0 0 0 0 0 0 0 0 0 0 0 0 0 0 0
0 0 0 0 0 0 0 0 0 0 0 0 0 0 0 0 0 0 0 0 0 0 0 0 0 0 0 0 0 0 0 0 0 0 0 0 0 0 0 0 0 0 0
0 0 0 0 0 0 0 0 0 0 0 0 0 0 0 0 0 0 0 0 0 0 0 0 0 0 0 0 0 0 0 0 0 0 0 0 0 0 0 0 0 0 0
0 0 0 0 0 0 0 0 0 0 0 0 0 0 0 0 0 0 0 0 0 0 0 0 0 0 0 0 0 0 0 0 0 0 0 0 0 0 0 0 0 0 0
0 0 0 0 0 0 0 0 0 0 0 0 0 0 0 0 0 0 0 0 0 0 0 0 0 0 0 0 0 0 0 0 0 0 0 0 0 0 0 0 0 0 0
0 0 0 0 0 0 0 0 0 0 0 0 0 0 0 0 0 0 0 0 0 0 0 0 0 0 0 0 0 0 0 0 0 0 0 0 0 0 0 0 0 0 0
0 0 0 0 0 0 0 0 0 0 0 0 0 0 0 0 0 0 0 0 0 0 0 0 0 0 0 0 0 0 0 0 0 0 0 0 0 0 0 0 0 0 0
0 0 0 0 0 0 0 0 0 0 0 0 0 0 0 0 0 0 0 0 0 0 0 0 0 0 0 0 0 0 0 0 0 0 0 0 0 0 0 0 0 0 0
0 0 0 0 0 0 0 0 0 0 0 0 0 0 0 0 0 0 0 0 0 0 0 0 0 0 0 0 0 0 0 0 0 0 0 0 0 0 0 0 0 0 0
0 0 0 0 0 0 0 0 0 0 0 0 0 0 0 0 0 0 0 0 0 0 0 0 0 0 0 0 0 0 0 0 0 0 0 0 0 0 0 0 0 0 0
0 0 0 0 0 0 0 0 0 0 0 0 0 0 0 0 0 0 0 0 0 0 0 0 0 0 0 0 0 0 0 0 0 0 0 0 0 0 0 0 0 0 0
0 0 0 0 0 0 0 0 0 0 0 0 0 0 0 0 0 0 0 0 0 0 0 0 0 0 0 0 0 0 0 0 0 0 0 0 0 0 0 0 0 0 0
0 0 0 0 0 0 0 0 0 0 0 0 0 0 0 0 0 0 0 0 0 0 0 0 0 0 0 0 0 0 0 0 0 0 0 0 0 0 0 0 0 0 0
0 0 0 0 0 0 0 0 0 0 0 0 0 0 0 0 0 0 0 0 0 0 0 0 0 0 0 0 0 0 0 0 0 0 0 0 0 0 0 0 0 0 0
0 0 0 0 0 0 0 0 0 0 0 0 0 0 0 0 0 0 0 0 0 0 0 0 0 0 0 0 0 0 0 0 0 0 0 0 0 0 0 0 0 0 0
0 0 0 0 0 0 0 0 0 0 0 0 0 0 0 0 0 0 0 0 0 0 0 0 0 0 0 0 0 0 0 0 0 0 0 0 0 0 0 0 0 0 0
0 0 0 0 0 0 0 0 0 0 0 0 0 0 0 0 0 0 0 0 0 0 0 0 0 0 0 0 0 0 0 0 0 0 0 0 0 0 0 0 0 0 0
0 0 0 0 0 0 0 0 0 0 0 0 0 0 0 0 0 0 0 0 0 0 0 0 0 0 0 0 0 0 0 0 0 0 0 0 0 0 0 0 0 0 0
0 0 0 0 0 0 0 0 0 0 0 0 0 0 0 0 0 0 0 0 0 0 0 0 0 0 0 0 0 0 0 0 0 0 0 0 0 0 0 0 0 0 0
0 0 0 0 0 0 0 0 0 0 0 0 0 0 0 0 0 0 0 0 0 0 0 0 0 0 0 0 0 0 0 0 0 0 0 0 0 0 0 0 0 0 0
0 0 0 0 0 0 0 0 0 0 0 0 0 0 0 0 0 0 0 0 0 0 0 0 0 0 0 0 0 0 0 0 0 0 0 0 0 0 0 0 0 0 0
0 0 0 0 0 0 0 0 0 0 0 0 0 0 0 0 0 0 0 0 0 0 0 0 0 0 0 0 0 0 0 0 0 0 0 0 0 0 0 0 0 0 0
0 0 0 0 0 0 0 0 0 0 0 0 0 0 0 0 0 0 0 0 0 0 0 0 0 0 0 0 0 0 0 0 0 0 0 0 0 0 0 0 0 0 0
0 0 0 0 0 0 0 0 0 0 0 0 0 0 0 0 0 0 0 0 0 0 0 0 0 0 0 0 0 0 0 0 0 0 0 0 0 0 0 0 0 0 0
0 0 0 0 0 0 0 0 0 0 0 0 0 0 0 0 0 0 0 0 0 0 0 0 0 0 0 0 0 0 0 0 0 0 0 0 0 0 0 0 0 0 0
Wind_Speed
3 3 4 7 7 8 8 9 10 11 12 13 14 15 16 17 18 19 19 20 21 22 23 23 24 25 25 26 26 26 26 27 27 27 27 27 27 27 27 27 26 16 26
5 2 8 9 8 8 8 8 9 10 11 12 13 14 15 16 17 18 19 20 20 21 22 23 24 24 25 25 25 26 26 26 27 26 26 23 25 26 26 26 26 19 27
5 3 5 9 8 8 7 8 8 9 10 11 12 13 14 15 16 17 18 19 19 20 21 22 23 23 24 24 25 25 25 26 26 26 22 13 16 24 26 26 26 26 27
5 4 2 10 9 8 7 7 7 8 10 11 12 13 13 14 15 16 17 17 18 19 20 20 21 22 23 23 24 24 25 25 25 24 13 12 12 21 25 26 26 27 27
5 4 3 11 9 8 7 7 7 8 9 10 11 12 13 13 14 15 16 16 17 17 18 19 20 21 22 22 23 24 24 24 24 18 11 11 10 20 25 25 26 26 26
5 3 3 12 10 8 7 7 7 7 9 10 11 12 12 13 13 14 14 15 16 16 17 18 19 20 21 22 23 23 24 24 19 10 10 10 11 21 26 25 25 25 26
6 3 2 11 10 9 7 7 6 7 8 9 10 11 11 12 12 13 13 14 14 15 16 17 18 19 20 21 22 23 24 24 16 11 10 10 14 25 26 26 26 26 26
6 4 0 9 10 9 7 7 6 7 8 9 10 10 11 11 12 12 12 13 14 14 15 17 18 19 20 21 21 22 22 21 16 13 11 11 20 27 27 26 26 26 26
6 5 3 3 4 7 6 7 7 7 7 8 9 10 10 11 11 12 12 12 13 14 15 16 17 19 19 20 20 21 21 21 11 8 12 10 22 27 27 27 27 27 27
5 5 4 4 4 4 2 5 7 7 7 7 8 9 10 10 10 11 10 11 12 13 14 16 17 18 19 19 19 20 20 16 7 7 6 11 24 26 27 27 27 27 27
6 5 5 5 4 4 3 4 5 6 7 7 6 9 8 4 3 5 8 11 12 13 14 15 16 17 17 17 19 19 15 6 7 6 6 18 25 25 26 27 27 28 28
9 7 5 6 6 5 4 4 3 4 4 5 4 5 4 3 2 4 8 10 11 12 13 14 15 14 12 6 11 14 5 7 6 6 9 23 24 25 26 26 26 27 28
9 8 8 7 6 6 4 4 3 3 3 4 5 5 4 3 2 3 2 4 5 7 5 7 7 4 4 4 4 5 5 5 4 5 9 21 23 24 25 26 26 27 28
9 10 9 8 7 7 5 4 4 3 3 3 4 5 4 3 2 1 1 1 1 1 2 3 2 4 4 5 5 5 6 4 4 4 7 19 22 23 24 25 26 27 28
12 12 10 10 9 7 6 5 5 5 5 5 4 5 5 4 3 2 1 0 0 1 1 2 2 3 4 5 5 6 6 7 7 6 6 17 21 22 23 25 26 27 29
15 14 11 12 10 8 7 6 5 5 5 5 5 6 6 4 4 3 2 1 1 1 1 1 3 3 3 4 5 6 7 7 7 7 6 10 18 21 22 24 26 28 29
14 13 13 13 11 10 9 8 6 5 5 5 5 6 6 6 5 4 3 3 3 2 2 2 3 3 4 4 6 7 7 7 7 8 8 6 8 15 21 24 26 28 29
12 13 14 13 13 12 10 8 5 5 6 5 5 5 7 7 6 5 4 4 3 3 2 3 3 3 4 4 5 6 6 6 8 8 7 7 6 7 13 22 25 27 29
15 14 15 14 14 13 10 7 6 5 6 5 5 5 6 7 7 5 4 4 4 3 3 4 3 3 4 5 6 6 6 6 7 9 7 7 7 7 6 15 23 26 29
13 14 15 15 13 11 8 5 4 4 5 5 6 7 8 7 7 6 5 5 4 3 4 4 4 4 4 5 7 7 7 8 7 7 7 6 6 8 8 9 10 15 26
13 15 16 16 13 11 6 6 5 6 5 5 7 8 9 8 8 7 5 5 5 5 5 5 3 4 4 3 4 5 7 7 8 6 5 5 7 8 8 9 7 8 11
17 17 17 18 16 15 11 7 4 4 4 5 5 8 9 9 9 8 7 6 6 5 5 5 4 3 3 2 2 4 5 4 3 6 6 6 7 6 8 11 9 10 10
18 20 18 19 18 16 12 7 4 3 2 4 6 7 9 10 10 8 8 7 6 6 5 6 6 5 4 3 3 2 3 5 7 5 6 7 6 6 7 7 11 10 12
20 16 17 17 17 15 15 13 13 11 11 11 7 7 8 9 9 9 8 8 7 6 6 7 6 5 5 4 3 5 6 5 5 8 5 4 6 8 8 10 10 11 12
15 14 15 15 16 16 17 18 16 14 10 5 5 7 8 8 9 9 9 8 8 7 7 7 6 6 5 5 5 4 5 6 7 8 13 11 7 6 7 8 9 9 11
10 12 13 15 17 16 18 18 19 18 12 9 9 9 8 6 7 9 9 8 8 7 8 8 7 7 7 7 6 5 5 5 6 7 10 14 15 10 7 7 8 9 9
Wind_Direction
199 237 168 118 102 85 72 62 55 50 46 42 40 39 38 37 35 33 32 31 30 29 28 28 28 28 28 27 25 25 27 29 27 21 16 9 4 3 5 6 4 356 359
164 204 145 123 110 94 80 70 61 55 50 45 42 41 39 38 37 34 33 32 31 29 28 28 28 28 27 25 24 24 27 29 24 21 16 8 359 359 3 3 1 357 358
136 106 116 129 118 105 91 79 69 61 54 49 45 42 40 40 38 34 34 32 31 30 29 28 27 27 25 24 23 24 26 29 23 20 15 6 353 355 0 1 359 357 355
136 110 110 138 126 115 102 87 76 67 59 53 49 44 41 41 39 35 34 32 31 30 29 28 27 26 25 23 23 23 25 29 23 20 12 2 352 349 359 359 357 355 352
136 124 179 141 134 124 111 97 83 73 65 59 53 47 42 43 40 35 34 32 30 29 28 28 27 26 24 22 21 22 23 27 23 17 6 357 348 345 357 357 355 352 349
144 137 196 147 142 133 123 109 93 80 72 65 59 50 44 43 42 35 33 32 30 29 28 28 27 26 24 21 20 20 20 23 26 8 1 355 340 344 354 354 352 350 347
155 153 208 156 151 145 135 121 105 91 79 71 66 56 47 44 43 35 33 33 30 29 28 27 27 26 24 20 19 18 18 19 20 4 356 352 332 347 350 350 349 347 344
155 146 72 169 156 152 144 134 118 102 90 80 74 63 52 45 41 36 31 33 31 30 28 27 26 25 23 19 17 16 16 19 13 358 350 346 336 345 346 346 345 343 341
156 140 106 72 119 147 145 144 130 116 103 90 82 72 59 48 40 36 28 32 31 29 27 26 24 23 21 17 14 13 13 12 12 352 348 336 335 340 341 341 340 339 337
167 157 146 121 108 95 85 149 138 128 116 102 93 85 71 57 42 33 24 28 31 29 26 25 23 21 20 13 9 8 10 9 357 347 342 324 334 336 336 337 336 334 332
188 183 166 157 150 145 147 141 124 125 123 105 91 96 92 78 56 24 18 31 31 30 26 24 22 20 19 10 5 4 7 355 348 341 331 326 331 331 332 332 331 330 328
194 193 185 175 170 167 157 121 118 110 111 118 115 110 114 106 78 60 29 33 32 32 26 23 22 20 16 5 357 359 351 341 340 331 325 327 327 327 327 327 326 325 324
191 191 187 184 178 172 159 152 148 138 137 144 148 145 135 117 83 69 46 30 23 32 28 19 16 10 1 351 341 333 326 325 319 314 314 319 322 323 323 323 322 322 320
187 196 188 184 181 182 171 167 165 162 162 169 173 163 152 147 143 138 114 55 32 23 16 11 0 349 341 329 317 309 306 303 297 294 296 315 318 319 319 319 319 319 317
197 197 192 186 187 182 176 180 175 178 178 179 178 178 169 163 167 169 170 168 349 1 359 340 333 324 315 306 297 296 292 289 287 283 292 308 315 317 317 317 317 316 315
202 200 193 191 191 183 184 187 183 183 180 177 184 187 180 173 172 175 184 202 232 242 253 271 279 284 283 282 281 279 278 278 277 278 279 296 308 314 316 316 315 314 312
200 196 193 195 191 190 192 193 189 185 179 184 189 189 186 181 179 178 186 208 224 228 245 257 269 262 263 266 270 274 272 266 271 275 280 277 288 306 312 315 314 311 310
195 195 197 198 193 196 195 193 188 185 185 190 189 188 191 189 184 181 190 212 217 214 226 243 249 254 259 264 267 269 269 267 270 273 273 275 277 287 302 310 312 312 312
198 196 196 199 193 196 195 191 190 186 192 192 188 190 195 193 188 184 196 211 210 212 223 245 242 230 254 266 268 263 256 258 266 274 273 273 274 280 283 303 309 312 310
198 198 200 200 196 188 181 177 185 198 204 196 195 197 194 195 191 187 198 211 207 213 227 230 247 247 243 258 279 280 266 261 259 259 264 272 276 282 287 289 295 303 306
198 200 201 201 195 181 174 179 185 204 202 202 204 201 197 195 192 189 200 202 203 211 223 224 234 258 259 248 272 281 269 255 247 248 250 260 272 276 278 283 285 288 295
204 204 204 204 198 194 194 178 174 174 190 200 200 201 199 196 193 196 197 202 204 211 223 225 214 236 257 253 264 306 312 295 247 249 246 259 267 269 278 288 287 288 288
208 206 205 205 201 198 186 163 145 137 151 178 198 203 201 196 194 196 194 197 203 204 217 222 212 217 243 249 204 220 283 293 306 259 238 255 259 266 272 280 283 286 292
213 206 206 202 201 195 185 187 187 194 202 201 191 193 192 193 194 196 196 198 202 205 215 223 219 211 220 246 233 217 219 236 286 301 282 252 252 268 269 283 288 286 286
209 202 203 201 201 195 194 198 201 210 210 179 176 185 192 195 197 198 198 198 203 208 213 219 222 218 216 229 230 227 237 242 233 263 291 297 282 255 259 267 275 279 283
200 198 197 200 204 198 198 202 206 210 199 184 189 192 195 196 200 202 202 201 205 208 214 219 221 223 225 230 236 231 231 238 245 248 274 291 295 288 264 261 269 272 276